Weather in Tatishevo

Russia / Saratov Oblast     51°40′14″N   45°35′41″E
temp.,
°C
wind,
m/s
gust,
m/s
humid.,
%
clouds,
%
prec.,
mm/h
press.,
hPa
HPBL,
m
6 may, thu
thu601:00+7wsw33745 0.0 101726
04:00+6wsw22760 0.0 101822
07:00+8sw23735 0.0 101895
10:00+14s45523 0.0 1018980
13:00+17ssw454494 0.0 10171815
16:00+17ssw5642100 0.0 10162043
19:00+15sse3659100 0.0 1016167
22:00+11s386794 0.0 1017130
7 may, fri
fri701:00+10s3964100 0.0 1016158
04:00+10sse4964100 0.0 1016176
07:00+11sse41165100 0.0 1016299
10:00+13sse51157100 0.0 1016433
13:00+18s694677 0.0 10151943
16:00+17ssw5955100 0.1 1014782
19:00+13w5978100 1.1 1016351
22:00+12ene1182100 1.6 101719
8 may, sat
sat801:00+11s118647 0.2 101713
04:00+9sse22895 0.2 101621
07:00+11se23855 0.0 1016105
10:00+16ssw466620 0.0 1016936
13:00+19ssw674890 0.0 10151610
16:00+20sw674045 0.0 10141786
19:00+18ssw355642 0.0 1013149
22:00+14sse466676 0.0 101376
9 may, sun
sun901:00+14s41162100 0.0 1012203
04:00+12sse4116686 0.0 1011197
07:00+13ssw2872100 0.0 1012244
10:00+16wnw1168100 0.0 1011488
13:00+16sse3570100 0.0 1011414
16:00+19ssw2754100 0.0 10111716
19:00+12n7990100 0.3 1012222
22:00+10nne61191100 0.4 1013288
10 may, mon
mon1001:00+9nne71291100 0.3 1013329
04:00+10ne61194100 1.7 1013237
07:00+10ne91495100 4.4 1014436
10:00+11ne81393100 5.9 1016398
13:00+15ene91379100 0.3 1017674
16:00+19ne91368100 0.3 10171201
19:00+16ne91775100 0.3 1017546
22:00+15e51076100 0.3 1019293